TimePDT,TemperatureF,Dew PointF,Humidity,Sea Level PressureIn,VisibilityMPH,Wind Direction,Wind SpeedMPH,Gust SpeedMPH,PrecipitationIn,Events,Conditions,WindDirDegrees,DateUTC
12:53 AM,37.9,19.0,47,29.98,10.0,NE,5.8,-,N/A,,Clear,50,2013-10-11 07:53:00
1:53 AM,30.0,14.0,51,30.01,10.0,Calm,Calm,-,N/A,,Clear,0,2013-10-11 08:53:00
2:53 AM,27.0,12.9,56,30.02,10.0,SSW,3.5,-,N/A,,Clear,200,2013-10-11 09:53:00
3:53 AM,25.0,12.0,58,30.04,10.0,Calm,Calm,-,N/A,,Clear,0,2013-10-11 10:53:00
4:53 AM,24.1,10.9,57,30.05,10.0,NNW,5.8,-,N/A,,Clear,340,2013-10-11 11:53:00
5:53 AM,24.1,12.0,60,30.07,10.0,SE,6.9,-,N/A,,Clear,140,2013-10-11 12:53:00
6:53 AM,23.0,10.9,60,30.10,10.0,NNE,3.5,-,N/A,,Clear,20,2013-10-11 13:53:00
7:53 AM,28.9,14.0,54,30.12,10.0,Calm,Calm,-,N/A,,Clear,0,2013-10-11 14:53:00
8:53 AM,39.0,17.1,41,30.12,10.0,East,3.5,-,N/A,,Clear,100,2013-10-11 15:53:00
9:53 AM,48.0,19.0,32,30.10,10.0,Calm,Calm,-,N/A,,Clear,0,2013-10-11 16:53:00
10:53 AM,55.9,21.0,26,30.09,10.0,NE,3.5,-,N/A,,Clear,50,2013-10-11 17:53:00
11:53 AM,59.0,23.0,25,30.08,10.0,Calm,Calm,-,N/A,,Clear,0,2013-10-11 18:53:00
12:53 PM,62.1,24.1,23,30.04,10.0,ENE,4.6,-,N/A,,Clear,70,2013-10-11 19:53:00
1:53 PM,63.0,25.0,24,30.03,10.0,Variable,6.9,-,N/A,,Clear,0,2013-10-11 20:53:00
2:53 PM,64.9,25.0,22,30.01,10.0,West,6.9,-,N/A,,Clear,280,2013-10-11 21:53:00
3:53 PM,64.9,24.1,21,30.01,10.0,SSW,5.8,-,N/A,,Clear,200,2013-10-11 22:53:00
4:53 PM,66.0,21.9,19,29.99,10.0,South,5.8,-,N/A,,Clear,190,2013-10-11 23:53:00
5:53 PM,64.0,24.1,22,29.99,10.0,South,4.6,-,N/A,,Clear,170,2013-10-12 00:53:00
6:53 PM,59.0,23.0,25,30.00,10.0,South,3.5,-,N/A,,Clear,170,2013-10-12 01:53:00
7:53 PM,51.1,21.0,31,30.01,10.0,Calm,Calm,-,N/A,,Clear,0,2013-10-12 02:53:00
8:53 PM,50.0,18.0,28,30.00,10.0,West,4.6,-,N/A,,Clear,280,2013-10-12 03:53:00
9:53 PM,48.0,18.0,30,29.99,10.0,Calm,Calm,-,N/A,,Clear,0,2013-10-12 04:53:00
10:53 PM,44.1,18.0,35,29.99,10.0,NNW,3.5,-,N/A,,Clear,340,2013-10-12 05:53:00
11:53 PM,39.0,18.0,43,30.00,10.0,East,4.6,-,N/A,,Clear,90,2013-10-12 06:53:00